This demonstration page uses our WeatherBlox Daily Observations layout. Learn more.

Left ArrowRight Arrow

Hourly Observations for January 9, 2022

Temp ( °F °C ) Dew Point ( °F °C ) Humidity (%) Winds ( mph kmh ) Pressure ( in mb ) Visibility ( mi km ) Precip ( " mm )
12:51 am 00:51 Clear 40 4.4 33 0.6 77 77 SSE 6 9 30.12 1020 10 16 0.00 0.00
1:51 am 01:51 Clear 38 3.3 32 0 79 79 Calm 30.14 1021 10 16 0.00 0.00
2:51 am 02:51 Clear 35 1.7 31 -0.6 85 85 Calm 30.16 1022 10 16 0.00 0.00
3:51 am 03:51 Clear 35 1.7 31 -0.6 85 85 SE 6 9 30.18 1022 10 16 0.00 0.00
4:51 am 04:51 Clear 33 0.6 31 -0.6 92 92 Calm 30.20 1023 10 16 0.00 0.00
5:51 am 05:51 Clear 33 0.6 31 -0.6 92 92 NE 3 6 30.24 1024 10 16 0.00 0.00
6:51 am 06:51 Clear 32 0 31 -0.6 96 96 Calm 30.27 1025 10 16 0.00 0.00
7:51 am 07:51 Sunny 32 0 30 -1.1 92 92 Calm 30.30 1026 10 16 0.00 0.00
8:51 am 08:51 Sunny 40 4.4 33 0.6 77 77 Calm 30.31 1027 10 16 0.00 0.00
9:51 am 09:51 Sunny 49 9.4 30 -1.1 48 48 SE 9 15 30.33 1027 10 16 0.00 0.00
10:51 am 10:51 Sunny 55 12.8 28 -2.2 35 35 ESE 13 20 30.33 1027 10 16 0.00 0.00
11:51 am 11:51 Sunny 57 13.9 32 0 39 39 SSE 7 11 30.33 1027 10 16 0.00 0.00
12:51 pm 12:51 Sunny 60 15.6 31 -0.6 33 33 SE 3 6 30.29 1026 10 16 0.00 0.00
1:51 pm 13:51 Sunny 63 17.2 29 -1.7 28 28 SSE 7 11 30.27 1025 10 16 0.00 0.00
2:51 pm 14:51 Sunny 64 17.8 28 -2.2 26 26 S 7 11 30.26 1025 10 16 0.00 0.00
3:51 pm 15:51 Sunny 64 17.8 27 -2.8 25 25 S 5 7 30.26 1025 10 16 0.00 0.00
4:51 pm 16:51 Sunny 63 17.2 28 -2.2 27 27 S 7 11 30.28 1025 10 16 0.00 0.00
5:51 pm 17:51 Clear 55 12.8 30 -1.1 38 38 E 5 7 30.31 1027 10 16 0.00 0.00
6:51 pm 18:51 Clear 54 12.2 30 -1.1 40 40 ESE 5 7 30.35 1028 10 16 0.00 0.00
7:51 pm 19:51 Clear 50 10 30 -1.1 46 46 S 7 11 30.38 1029 10 16 0.00 0.00
8:51 pm 20:51 Clear 47 8.3 30 -1.1 52 52 SSE 8 13 30.39 1029 10 16 0.00 0.00
9:51 pm 21:51 Clear 45 7.2 30 -1.1 56 56 SE 6 9 30.40 1030 10 16 0.00 0.00
10:51 pm 22:51 Clear 45 7.2 30 -1.1 56 56 SE 8 13 30.41 1030 10 16 0.00 0.00
11:51 pm 23:51 Clear 43 6.1 29 -1.7 58 58 ESE 7 11 30.41 1030 10 16 0.00 0.00

Powered by AerisWeather